Flag for Russia Weather past 2 weeks in Sochi, Russia

Now
46 °F

Clear.


Feels Like: 46 °F
Forecast: 42 / 69 °F
Wind: No wind

Location: Adler

Current Time: Apr 26, 2015 at 1:12:14 AM

Latest Report: Apr 26, 2015 at 12:30 AM


Visibility: N/A

Pressure: 30.15 "Hg

Humidity: 87%

Dew point: 43 °F

Location of SochiLocation

Historic Weather in Sochi — Graph

°F

Sochi temperature yesterday

Maximum temperature yesterday: 55 °F (at 1:00 PM)
Minimum temperature yesterday: 41 °F (at 5:00 AM)
Average temperature yesterday: 50 °F

Past Weeks' High & Low Weather Summary

 TemperatureHumidityPressure
High66 °F (Apr 18, 11:00 AM)94% (Apr 19, 3:30 AM)30.30 "Hg (Apr 19, 3:30 AM)
Low36 °F (Apr 23, 4:30 AM)26% (Apr 17, 2:00 PM)29.77 "Hg (Apr 19, 4:00 PM)
Average49 °F74%30.07 "Hg
* Reported Apr 10 11:00 PM — Apr 25 11:30 PM, Sochi, Weather by CustomWeather, © 2015

Note: Actual official high and low records may vary slightly from our data, if they occured in-between our weather recording intervals... More about our weather records

Advertising

Sochi weather history for previous 24 hours

 ConditionsComfort  
Time TempWeatherWind HumidityBarometerVisibility
11:30 PM
Sat, Apr 25
46 °FClear.8 mph87%30.15 "HgN/A
11:00 PM48 °FClear.No wind82%30.15 "HgN/A
10:30 PM46 °FClear.1 mph87%30.15 "HgN/A
10:00 PM48 °FClear.1 mph82%30.18 "HgN/A
9:30 PM48 °FClear.1 mph82%30.18 "Hg6 mi
9:00 PM50 °FClear.No wind76%30.18 "Hg6 mi
8:30 PM50 °FClear.6 mph76%30.18 "HgN/A
8:00 PM52 °FSunny.3 mph67%30.18 "HgN/A
7:30 PM54 °FSunny.1 mph63%30.18 "HgN/A
7:00 PM54 °FSunny.3 mph63%30.18 "HgN/A
6:30 PM55 °FSunny.3 mph55%30.18 "HgN/A
6:00 PM55 °FSunny.3 mph59%30.18 "Hg6 mi
5:30 PM55 °FPassing clouds.3 mph59%30.18 "HgN/A
5:00 PM55 °FPassing clouds.3 mph59%30.21 "HgN/A
4:30 PM55 °FPassing clouds.3 mph63%30.21 "HgN/A
4:00 PM55 °FPassing clouds.3 mph67%30.21 "HgN/A
3:30 PM55 °FPassing clouds.6 mph67%30.21 "HgN/A
3:00 PM55 °FPassing clouds.6 mph67%30.21 "HgN/A
2:30 PM55 °FPassing clouds.6 mph63%30.24 "HgN/A
2:00 PM54 °FPassing clouds.6 mph67%30.27 "HgN/A
1:30 PM54 °FPassing clouds.8 mph67%30.27 "HgN/A
1:00 PM55 °FPassing clouds.8 mph63%30.27 "HgN/A
12:30 PM54 °FPassing clouds.8 mph63%30.27 "HgN/A
12:00 PM54 °FPassing clouds.8 mph72%30.27 "HgN/A
11:30 AM54 °FPassing clouds.8 mph72%30.30 "HgN/A
11:00 AM54 °FScattered clouds.8 mph72%30.27 "HgN/A
10:30 AM52 °FScattered clouds.8 mph77%30.27 "HgN/A
10:00 AM52 °FPartly sunny.8 mph72%30.27 "HgN/A
9:30 AM52 °FPartly sunny.10 mph77%30.27 "HgN/A
9:00 AM52 °FPassing clouds.8 mph72%30.27 "HgN/A
8:30 AM52 °FSunny.6 mph72%30.27 "HgN/A
8:00 AM50 °FSunny.3 mph76%30.27 "HgN/A
7:30 AM48 °FScattered clouds.6 mph76%30.27 "HgN/A
7:00 AM45 °FPartly sunny.8 mph87%30.27 "HgN/A
6:30 AM43 °FScattered clouds.8 mph87%30.27 "HgN/A
6:00 AM41 °FPassing clouds.8 mph93%30.27 "HgN/A
5:30 AM41 °FClear.3 mph93%30.27 "HgN/A
5:00 AM41 °FClear.6 mph93%30.27 "HgN/A
4:00 AM43 °FPassing clouds.6 mph87%30.24 "HgN/A
3:30 AM43 °FPassing clouds.6 mph93%30.27 "HgN/A
3:00 AM43 °FPassing clouds.6 mph93%30.27 "HgN/A
2:30 AM43 °FPassing clouds.3 mph87%30.27 "HgN/A
2:00 AM43 °FPassing clouds.3 mph93%30.27 "HgN/A
1:30 AM43 °FPassing clouds.3 mph93%30.27 "HgN/A
1:00 AM45 °FPassing clouds.3 mph93%30.27 "HgN/A
Weather by CustomWeather, © 2015

See weather overviewHow to use our weather pages